TimePDT,TemperatureF,Dew PointF,Humidity,Sea Level PressureIn,VisibilityMPH,Wind Direction,Wind SpeedMPH,Gust SpeedMPH,PrecipitationIn,Events,Conditions,WindDirDegrees,DateUTC
12:53 AM,72.0,50.0,46,29.83,10.0,SSE,5.8,-,N/A,,Clear,160,2013-09-11 07:53:00
1:53 AM,70.0,50.0,49,29.85,10.0,WSW,5.8,-,N/A,,Clear,250,2013-09-11 08:53:00
2:53 AM,68.0,53.1,59,29.86,10.0,West,5.8,-,N/A,,Clear,260,2013-09-11 09:53:00
3:53 AM,66.9,50.0,54,29.87,10.0,West,8.1,-,N/A,,Clear,270,2013-09-11 10:53:00
4:53 AM,64.9,52.0,63,29.88,10.0,WNW,6.9,-,N/A,,Clear,290,2013-09-11 11:53:00
5:53 AM,64.0,54.0,70,29.90,10.0,NW,9.2,-,N/A,,Clear,310,2013-09-11 12:53:00
6:53 AM,63.0,55.9,78,29.92,10.0,NW,8.1,-,N/A,,Clear,310,2013-09-11 13:53:00
7:53 AM,64.9,55.9,73,29.94,9.0,NNW,8.1,-,N/A,,Clear,330,2013-09-11 14:53:00
8:53 AM,68.0,57.0,68,29.95,9.0,NW,6.9,-,N/A,,Clear,310,2013-09-11 15:53:00
9:53 AM,73.0,57.9,59,29.96,8.0,Variable,3.5,-,N/A,,Clear,0,2013-09-11 16:53:00
10:53 AM,77.0,57.0,50,29.96,9.0,Variable,5.8,-,N/A,,Clear,0,2013-09-11 17:53:00
11:53 AM,80.1,57.0,45,29.95,9.0,Calm,Calm,-,N/A,,Clear,0,2013-09-11 18:53:00
12:53 PM,82.9,53.1,36,29.94,10.0,Calm,Calm,-,N/A,,Clear,0,2013-09-11 19:53:00
1:53 PM,84.0,54.0,35,29.92,10.0,Calm,Calm,-,N/A,,Clear,0,2013-09-11 20:53:00
2:53 PM,88.0,52.0,29,29.90,10.0,Variable,4.6,-,N/A,,Clear,0,2013-09-11 21:53:00
3:53 PM,89.1,52.0,28,29.88,10.0,WNW,5.8,-,N/A,,Clear,290,2013-09-11 22:53:00
4:53 PM,89.1,53.1,29,29.88,10.0,NNE,6.9,-,N/A,,Clear,20,2013-09-11 23:53:00
5:53 PM,89.1,51.1,27,29.88,10.0,NNW,6.9,-,N/A,,Clear,330,2013-09-12 00:53:00
6:53 PM,84.0,55.9,38,29.87,9.0,WNW,9.2,-,N/A,,Clear,300,2013-09-12 01:53:00
7:53 PM,80.1,55.0,42,29.88,10.0,WNW,6.9,-,N/A,,Clear,300,2013-09-12 02:53:00
8:53 PM,77.0,54.0,45,29.90,10.0,NW,8.1,-,N/A,,Clear,320,2013-09-12 03:53:00
9:53 PM,75.9,55.0,48,29.91,10.0,NW,8.1,-,N/A,,Clear,320,2013-09-12 04:53:00
10:53 PM,73.9,55.0,52,29.91,10.0,NNW,6.9,-,N/A,,Clear,330,2013-09-12 05:53:00
11:53 PM,72.0,55.9,57,29.92,10.0,NW,8.1,-,N/A,,Clear,320,2013-09-12 06:53:00